Location: Unspecified
(0.0000°N, 0.0000°E)
Time: 13:20:59
(UTC+00:00)

deb Agena D - Visible Passes

Search period start: 11 March 2026 00:00
Search period end: 21 March 2026 00:00
Orbit: 865 x 889 km, 70.1° (Epoch: 11 March)

Date Brightness Start Highest point End Pass type
(mag) Time Alt. Az. Time Alt. Az. Time Alt. Az.
11 Mar ? 19:18:36 10° SW 19:23:04 23° WNW 19:27:32 10° NNW visible
12 Mar ? 19:14:43 10° WSW 19:18:39 19° WNW 19:22:35 10° NNW visible
13 Mar ? 19:11:01 10° WSW 19:14:13 15° WNW 19:17:27 10° NW visible
14 Mar ? 04:33:33 10° ENE 04:34:55 11° ENE 04:36:17 10° E visible
14 Mar ? 19:07:40 10° W 19:09:49 12° WNW 19:11:57 10° NW visible
15 Mar ? 04:27:38 10° NE 04:30:30 14° ENE 04:33:21 10° ESE visible
16 Mar ? 04:22:22 10° NE 04:26:05 17° ENE 04:29:47 10° ESE visible
17 Mar ? 04:17:20 10° NNE 04:21:39 21° ENE 04:25:58 10° ESE visible
18 Mar ? 04:12:28 10° NNE 04:17:13 26° ENE 04:22:00 10° SE visible
19 Mar ? 04:07:40 10° NNE 04:12:48 31° ENE 04:17:56 10° SE visible
20 Mar ? 04:02:58 10° N 04:08:22 38° ENE 04:13:47 10° SE visible
